Regional Weather Roundup
Issued by NWS

Home | Current Version | Previous Version | Text Only | Print | Product List | Glossary On
Versions: 1 2 3 4 5 6 7 8 9 10 11 12 13 14 15 16 17 18 19 20 21 22 23 24 25 26 27 28 29 30 31 32 33 34 35 36 37 38 39 40 41 42 43 44 45 46 47 48 49 50
000
ASUS43 KOAX 182010
RWRNE

WEATHER ROUNDUP FOR NEBRASKA
NATIONAL WEATHER SERVICE OMAHA NE
200 PM CST MON FEB 18 2019

NOTES: SATELLITE DATA IS BEING USED TO AUGMENT CLOUD COVER ABOVE
       12000 FEET.
       "FAIR" INDICATES FEW OR NO CLOUDS BELOW 12,000 FEET WITH NO
       SIGNIFICANT WEATHER AND/OR OBSTRUCTIONS TO VISIBILITY.


NEZ001>004-019>022-054>056-182100-
NEBRASKA PANHANDLE

CITY           SKY/WX    TMP DP  RH WIND       PRES   REMARKS
SCOTTSBLUFF    FAIR      14   2  58 VRB6      30.21F WCI   5
ALLIANCE       FAIR      12   2  64 VRB7      30.22F WCI   1
CHADRON        FAIR      13   1  59 NE6       30.28F WCI   4
GORDON         FAIR       8   0  69 CALM      30.28F
KIMBALL        CLOUDY    15   4  62 SE7       30.13F WCI   5
SIDNEY         PTSUNNY   15   4  61 S5        30.19F WCI   8
$$

NEZ057>060-069>072-079>082-182100-
SOUTHWEST NEBRASKA

CITY           SKY/WX    TMP DP  RH WIND       PRES   REMARKS
NORTH PLATTE   LGT SNOW  14   4  64 CALM      30.37F
IMPERIAL       CLOUDY    13   4  67 NE5       30.31F WCI   5
LEXINGTON      CLOUDY    14   6  69 CALM      30.41F
MCCOOK         CLOUDY    15   7  70 NE3       30.39F
OGALLALA       CLOUDY    14   3  63 CALM      30.32F
$$

NEZ005>010-023>029-035>040-094-182100-
NORTH CENTRAL NEBRASKA

CITY           SKY/WX    TMP DP  RH WIND       PRES   REMARKS
VALENTINE      FAIR      12   1  61 NW6       30.39F WCI   3
AINSWORTH      FAIR      11   3  69 NW5       30.40F WCI   3
BROKEN BOW     CLOUDY    13   4  67 N8        30.39F WCI   2
O`NEILL        FAIR      12   5  72 NW9       30.45S WCI   0
ORD            CLOUDY    16   6  65 N8        30.43F WCI   5
THEDFORD       CLOUDY    13   4  70 CALM      30.36F
$$

NEZ041-046>049-061>064-073>077-083>087-182100-
SOUTH CENTRAL NEBRASKA

CITY           SKY/WX    TMP DP  RH WIND       PRES   REMARKS
GRAND ISLAND   CLOUDY    15   7  70 N7        30.45F WCI   5
AURORA         FAIR      15   8  72 CALM      30.46F
HASTINGS       PTSUNNY   14   7  73 N7        30.45F WCI   4
HEBRON         FAIR      18  11  74 N6        30.48F WCI  10
HOLDREGE       FAIR      13   6  74 N5        30.42F WCI   5
KEARNEY        CLOUDY    21   8  57 N8        30.44F WCI  11
YORK           FAIR      16   9  73 CALM      30.47F
$$

NEZ011>018-030>034-042>045-182100-
NORTHEAST NEBRASKA

CITY           SKY/WX    TMP DP  RH WIND       PRES   REMARKS
NORFOLK        FAIR      15   7  70 NW9       30.45F WCI   3
ALBION         FAIR      16   8  68 NW8       30.46S WCI   6
BLAIR          FAIR      16   9  73 W7        30.48F WCI   6
COLUMBUS       FAIR      21   9  59 NW6       30.49F WCI  13
FREMONT        FAIR      19  10  68 NW5       30.50F WCI  12
TEKAMAH        FAIR      15   7  70 NW6       30.52F WCI   6
WAYNE          FAIR      12   1  62 NW7       30.49S WCI   1
$$

NEZ050>053-065>068-078-088>093-182100-
SOUTHEAST NEBRASKA

CITY           SKY/WX    TMP DP  RH WIND       PRES   REMARKS
LINCOLN        FAIR      21  11  65 N5        30.51F WCI  15
OMAHA EPPLEY   FAIR      16   7  67 N13       30.51F WCI   2
BEATRICE       FLURRIES  19  13  76 N6        30.49F WCI  11
FALLS CITY     PTSUNNY   21  13  71 NW6       30.50F WCI  13
NEBRASKA CITY  FAIR      20  10  66 NW7       30.50S WCI  11
PLATTSMOUTH    FAIR      19  11  71 NW7       30.49F WCI  10
$$

NEZ044-045-051>053-067-182100-
OMAHA AREA

CITY           SKY/WX    TMP DP  RH WIND       PRES   REMARKS
OMAHA EPPLEY   FAIR      16   7  67 N13       30.51F WCI   2
BLAIR          FAIR      16   9  73 W7        30.48F WCI   6
FREMONT        FAIR      19  10  68 NW5       30.50F WCI  12
MILLARD        FAIR      20  10  65 NW7       30.51S WCI  11
OFFUTT AFB     FAIR      23  13  67 CALM      30.50S
PLATTSMOUTH    FAIR      19  11  71 NW7       30.49F WCI  10
WAHOO          FAIR      17   9  71 N8        30.50F WCI   6
$$




USA.gov is the U.S. government's official web portal to all federal, state and local government web resources and services.